Regional Weather Roundup
Issued by NWS

Home | Current Version | Previous Version | Graphics & Text | Print | Product List | Glossary Off
Versions: 1 2 3 4 5 6 7 8 9 10 11 12 13 14 15 16 17 18 19 20 21 22 23 24 25 26 27 28 29 30 31 32 33 34 35 36 37 38 39 40 41 42 43 44 45 46 47 48 49 50

000
ASUS43 KTOP 232259
RWRKS

WEATHER ROUNDUP FOR KANSAS
NATIONAL WEATHER SERVICE GOODLAND KS
600 PM CDT SAT JUL 23 2016

NOTE:  "FAIR" INDICATES FEW OR NO CLOUDS BELOW 12,000 FEET WITH NO
SIGNIFICANT WEATHER AND/OR OBSTRUCTIONS TO VISIBILITY.

KSZ001>006-013>018-027>032-041>047-240000-
NORTHWEST KANSAS

CITY           SKY/WX    TMP DP  RH WIND       PRES   REMARKS
GOODLAND       SUNNY    102  46  15 N14G22    29.91F HX  98
HAYS           SUNNY    104  57  21 SW17      29.79S HX 103
HILL CITY      SUNNY    101  64  29 N13       29.80S HX 104
RUSSELL        SUNNY    103  55  20 S22G28    29.79F HX 101
$$

KSZ061>065-074>080-084>089-240000-
SOUTHWEST KANSAS

CITY           SKY/WX    TMP DP  RH WIND       PRES   REMARKS
DODGE CITY     SUNNY    100  55  22 S15       29.84F HX  98
ELKHART          N/A     98  58  26 S12         N/A  HX  97
GARDEN CITY    SUNNY     97  66  36 S10       29.84S HX 100
GREAT BEND     CLOUDY   102  57  22 SW15G21   29.80F HX 101
LIBERAL        SUNNY    102  55  21 S21G26    29.87F HX 101
$$

KSZ066>073-081>083-090>101-240000-
SOUTHEAST KANSAS

CITY           SKY/WX    TMP DP  RH WIND       PRES   REMARKS
CHANUTE        SUNNY     95  70  44 S12       29.86F HX 101
COFFEYVILLE    SUNNY    100  68  35 S10       29.85F HX 105
HUTCHINSON     CLOUDY    98  63  31 S10       29.82F HX 100
NEWTON         CLOUDY    98  68  37 S14       29.84F HX 103
PARSONS        SUNNY     97  70  41 S8        29.87F HX 103
WICHITA INTL   PTSUNNY  100  61  27 S15G21    29.81F HX 101
WICHITA JABRA  PTSUNNY   97  66  36 S14       29.83F HX 100
WINFIELD       SUNNY     99  66  33 S15G25    29.84F HX 103
$$

KSZ007>012-019>026-033>040-048>060-102>105-240000-
NORTHEAST KANSAS

CITY           SKY/WX    TMP DP  RH WIND       PRES   REMARKS
CONCORDIA      CLOUDY    94  67  41 S12       29.80F HX  97
EMPORIA        CLOUDY    92  70  48 SE8       29.86F HX  97
LAWRENCE       CLOUDY    90  74  59 S7        29.86F HX  99
MANHATTAN      CLOUDY    97  70  41 S15G21    29.81F HX 103
OLATHE IND     MOSUNNY   92  73  53 S6        29.88F HX 100
OLATHE EXE     PTSUNNY   91  72  53 S7        29.89F HX  98
SALINA         CLOUDY    98  67  36 SE12      29.80F HX 102
TOPEKA BILLARD CLOUDY    91  75  59 SE7       29.85F HX 101
TOPEKA FORBES  CLOUDY    92  74  55 S8        29.86F HX 101
$$



USA.gov is the U.S. government's official web portal to all federal, state and local government web resources and services.